| time (UTC) | temp F | wind direction | speed MPH | gust MPH | rain 1hr in | rain 24hr in | rain mn in | humidity % | barometer mb |
| 20260507180154 | 66 | 86 | 1.0 | 2.0 | 0.00 | 0.84 | 0.84 | 90 | 997.9 |
| 20260507175649 | 66 | 144 | 0.0 | 0.0 | 0.00 | 0.84 | 0.84 | 90 | 998.3 |
| 20260507175146 | 66 | 63 | 4.0 | 7.0 | 0.00 | 0.84 | 0.84 | 91 | 998.6 |
| 20260507174643 | 65 | 137 | 1.0 | 1.0 | 0.00 | 0.84 | 0.84 | 91 | 998.9 |
| 20260507174142 | 65 | 135 | 0.0 | 0.0 | 0.00 | 0.84 | 0.84 | 91 | 998.7 |
| 20260507173639 | 65 | 94 | 1.0 | 2.0 | 0.00 | 0.84 | 0.84 | 92 | 998.3 |
| 20260507173136 | 65 | 334 | 2.0 | 2.0 | 0.00 | 0.84 | 0.84 | 92 | 998.5 |
| 20260507172632 | 64 | 79 | 1.0 | 2.0 | 0.00 | 0.84 | 0.84 | 92 | 998.3 |
| 20260507172130 | 64 | 56 | 4.0 | 7.0 | 0.00 | 0.84 | 0.84 | 92 | 998.2 |
| 20260507171624 | 64 | 65 | 0.0 | 1.0 | 0.00 | 0.84 | 0.84 | 92 | 998.2 |
| 20260507171121 | 64 | 65 | 3.0 | 3.0 | 0.00 | 0.84 | 0.84 | 92 | 998.9 |
| 20260507170618 | 64 | 359 | 5.0 | 7.0 | 0.00 | 0.84 | 0.84 | 92 | 999.0 |
| 20260507170115 | 64 | 357 | 3.0 | 4.0 | 0.00 | 0.84 | 0.84 | 93 | 999.8 |
| 20260507165611 | 64 | 294 | 3.0 | 3.0 | 0.00 | 0.84 | 0.84 | 93 | 999.6 |
| 20260507165108 | 64 | 34 | 2.0 | 4.0 | 0.00 | 0.84 | 0.84 | 93 | 999.4 |
| 20260507164603 | 64 | 134 | 0.0 | 1.0 | 0.00 | 0.84 | 0.84 | 93 | 999.4 |
| 20260507164100 | 64 | 268 | 1.0 | 2.0 | 0.00 | 0.84 | 0.84 | 93 | 999.7 |
| 20260507163558 | 64 | 322 | 4.0 | 6.0 | 0.00 | 0.84 | 0.84 | 94 | 999.9 |
| 20260507163056 | 64 | 74 | 2.0 | 3.0 | 0.00 | 0.84 | 0.84 | 94 | 999.9 |
| 20260507162555 | 64 | 103 | 2.0 | 2.0 | 0.00 | 0.84 | 0.84 | 95 | 1000.0 |
| 20260507162053 | 64 | 308 | 5.0 | 6.0 | 0.00 | 0.84 | 0.84 | 94 | 999.9 |
| 20260507161549 | 64 | 133 | 0.0 | 0.0 | 0.00 | 0.84 | 0.84 | 95 | 999.7 |
| 20260507161046 | 64 | 306 | 3.0 | 3.0 | 0.00 | 0.84 | 0.84 | 95 | 1000.0 |
| 20260507160542 | 64 | 144 | 1.0 | 1.0 | 0.00 | 0.84 | 0.84 | 95 | 1000.4 |
| 20260507160038 | 64 | 108 | 1.0 | 2.0 | 0.00 | 0.84 | 0.84 | 94 | 1000.7 |
| 20260507155534 | 64 | 256 | 2.0 | 2.0 | 0.00 | 0.84 | 0.84 | 94 | 1000.8 |
| 20260507155031 | 64 | 135 | 0.0 | 0.0 | 0.07 | 0.84 | 0.84 | 94 | 1001.0 |
| 20260507154528 | 64 | 355 | 5.0 | 10.0 | 0.07 | 0.84 | 0.84 | 95 | 1001.2 |
| 20260507154025 | 64 | 317 | 5.0 | 6.0 | 0.00 | 0.83 | 0.83 | 95 | 1001.1 |
| 20260507153522 | 64 | 137 | 0.0 | 1.0 | 0.07 | 0.83 | 0.83 | 95 | 1001.1 |
| 20260507153018 | 64 | 192 | 1.0 | 1.0 | 0.07 | 0.83 | 0.83 | 95 | 1001.0 |
| 20260507152514 | 64 | 141 | 2.0 | 3.0 | 0.00 | 0.82 | 0.82 | 95 | 1001.1 |
| 20260507152011 | 64 | 140 | 0.0 | 1.0 | 0.00 | 0.82 | 0.82 | 96 | 1001.2 |
| 20260507151507 | 65 | 271 | 1.0 | 1.0 | 0.00 | 0.82 | 0.82 | 96 | 1001.6 |
| 20260507151004 | 65 | 244 | 2.0 | 2.0 | 0.00 | 0.82 | 0.82 | 96 | 1001.9 |
| 20260507150501 | 64 | 137 | 1.0 | 2.0 | 0.00 | 0.82 | 0.82 | 96 | 1002.0 |
| 20260507145957 | 64 | 106 | 1.0 | 1.0 | 0.00 | 0.82 | 0.82 | 96 | 1001.7 |
| 20260507145452 | 64 | 133 | 0.0 | 1.0 | 0.00 | 0.82 | 0.82 | 96 | 1001.6 |
| 20260507144950 | 64 | 106 | 1.0 | 2.0 | 0.00 | 0.82 | 0.82 | 96 | 1001.6 |
| 20260507144447 | 64 | 102 | 1.0 | 2.0 | 0.00 | 0.82 | 0.82 | 96 | 1001.2 |
| 20260507143944 | 64 | 112 | 1.0 | 1.0 | 0.00 | 0.82 | 0.82 | 96 | 1001.5 |
| 20260507143441 | 64 | 12 | 3.0 | 4.0 | 0.00 | 0.82 | 0.82 | 96 | 1001.6 |
| 20260507142938 | 64 | 66 | 0.0 | 1.0 | 0.00 | 0.82 | 0.82 | 97 | 1001.5 |
| 20260507142433 | 64 | 148 | 0.0 | 0.0 | 0.00 | 0.82 | 0.82 | 97 | 1001.1 |
| 20260507141931 | 64 | 130 | 0.0 | 0.0 | 0.00 | 0.82 | 0.82 | 96 | 1001.3 |
| 20260507141427 | 64 | 185 | 1.0 | 1.0 | 0.05 | 0.82 | 0.82 | 96 | 1001.6 |
| 20260507140924 | 64 | 315 | 2.0 | 4.0 | 0.05 | 0.82 | 0.82 | 96 | 1001.3 |
| 20260507140420 | 64 | 296 | 8.0 | 9.0 | 0.07 | 0.81 | 0.81 | 96 | 1001.1 |
| 20260507135918 | 64 | 149 | 0.0 | 0.0 | 0.12 | 0.81 | 0.81 | 96 | 1000.3 |
| 20260507135414 | 64 | 138 | 2.0 | 4.0 | 0.17 | 0.80 | 0.80 | 96 | 1000.8 |
| 20260507134912 | 64 | 171 | 1.0 | 1.0 | 0.19 | 0.79 | 0.79 | 96 | 1001.4 |
| 20260507134408 | 64 | 313 | 3.0 | 3.0 | 0.17 | 0.78 | 0.78 | 95 | 1001.9 |
| 20260507133904 | 65 | 344 | 2.0 | 6.0 | 0.12 | 0.76 | 0.76 | 95 | 1002.4 |
| 20260507133400 | 65 | 322 | 7.0 | 8.0 | 0.07 | 0.75 | 0.75 | 94 | 1002.4 |
| 20260507132859 | 65 | 290 | 4.0 | 6.0 | 0.00 | 0.74 | 0.74 | 93 | 1001.9 |
| 20260507132355 | 65 | 6 | 2.0 | 2.0 | 0.00 | 0.74 | 0.74 | 93 | 1002.0 |
| 20260507131852 | 65 | 0 | 3.0 | 4.0 | 0.00 | 0.74 | 0.74 | 94 | 1001.1 |
| 20260507131349 | 65 | 29 | 1.0 | 1.0 | 0.00 | 0.74 | 0.74 | 94 | 1000.2 |
| 20260507130846 | 65 | 143 | 0.0 | 0.0 | 0.00 | 0.74 | 0.74 | 94 | 1000.8 |
| 20260507130343 | 65 | 144 | 2.0 | 3.0 | 0.00 | 0.74 | 0.74 | 93 | 1001.2 |
| 20260507125842 | 65 | 202 | 3.0 | 4.0 | 0.00 | 0.74 | 0.74 | 93 | 1002.0 |
| 20260507125339 | 65 | 317 | 4.0 | 4.0 | 0.00 | 0.74 | 0.74 | 93 | 1002.3 |
| 20260507124836 | 65 | 0 | 3.0 | 3.0 | 0.00 | 0.74 | 0.74 | 93 | 1002.7 |
| 20260507124332 | 65 | 11 | 4.0 | 6.0 | 0.00 | 0.74 | 0.74 | 92 | 1002.9 |
| 20260507123831 | 65 | 41 | 1.0 | 2.0 | 0.00 | 0.74 | 0.74 | 93 | 1001.0 |
| 20260507123328 | 65 | 204 | 2.0 | 2.0 | 0.00 | 0.74 | 0.74 | 92 | 1001.6 |
| 20260507122824 | 65 | 150 | 1.0 | 1.0 | 0.00 | 0.74 | 0.74 | 92 | 1001.2 |
| 20260507122319 | 65 | 216 | 6.0 | 8.0 | 0.00 | 0.74 | 0.74 | 93 | 1000.7 |
| 20260507121816 | 64 | 311 | 2.0 | 6.0 | 0.00 | 0.74 | 0.74 | 94 | 999.9 |
| 20260507121312 | 64 | 164 | 1.0 | 2.0 | 0.00 | 0.74 | 0.74 | 94 | 999.1 |
| 20260507120808 | 64 | 266 | 2.0 | 3.0 | 0.00 | 0.74 | 0.74 | 94 | 999.3 |
| 20260507120305 | 64 | 332 | 5.0 | 7.0 | 0.00 | 0.74 | 0.74 | 94 | 999.4 |
| 20260507115801 | 64 | 311 | 3.0 | 4.0 | 0.00 | 0.74 | 0.74 | 94 | 998.8 |
| 20260507115256 | 64 | 2 | 1.0 | 2.0 | 0.00 | 0.74 | 0.74 | 95 | 998.1 |
| 20260507114752 | 64 | 352 | 2.0 | 2.0 | 0.00 | 0.74 | 0.74 | 95 | 997.5 |
| 20260507114250 | 64 | 76 | 1.0 | 1.0 | 0.00 | 0.74 | 0.74 | 95 | 997.7 |
| 20260507113748 | 64 | 194 | 0.0 | 1.0 | 0.00 | 0.74 | 0.74 | 95 | 998.0 |
| 20260507113244 | 64 | 138 | 3.0 | 4.0 | 0.00 | 0.74 | 0.74 | 95 | 997.9 |
| 20260507112742 | 64 | 121 | 3.0 | 6.0 | 0.00 | 0.74 | 0.74 | 95 | 998.2 |
| 20260507112238 | 64 | 40 | 2.0 | 4.0 | 0.00 | 0.74 | 0.74 | 95 | 998.5 |
| 20260507111737 | 64 | 39 | 2.0 | 3.0 | 0.00 | 0.74 | 0.74 | 95 | 998.1 |
| 20260507111233 | 64 | 126 | 1.0 | 2.0 | 0.00 | 0.74 | 0.74 | 94 | 998.0 |
| 20260507110728 | 64 | 27 | 1.0 | 2.0 | 0.05 | 0.74 | 0.74 | 95 | 997.3 |
| 20260507110225 | 64 | 36 | 1.0 | 3.0 | 0.05 | 0.74 | 0.74 | 95 | 996.9 |
| 20260507105722 | 64 | 47 | 2.0 | 3.0 | 0.05 | 0.74 | 0.74 | 95 | 997.0 |
| 20260507105218 | 64 | 142 | 0.0 | 0.0 | 0.00 | 0.73 | 0.73 | 95 | 997.1 |
| 20260507104716 | 64 | 78 | 0.0 | 0.0 | 0.00 | 0.73 | 0.73 | 95 | 997.4 |
| 20260507104212 | 64 | 33 | 1.0 | 2.0 | 0.00 | 0.73 | 0.73 | 95 | 997.3 |
| 20260507103708 | 64 | 321 | 4.0 | 6.0 | 0.00 | 0.73 | 0.73 | 95 | 997.1 |
| 20260507103205 | 64 | 127 | 0.0 | 1.0 | 0.00 | 0.73 | 0.73 | 95 | 996.9 |
| 20260507102701 | 64 | 110 | 2.0 | 2.0 | 0.00 | 0.73 | 0.73 | 95 | 996.4 |
| 20260507102158 | 64 | 91 | 4.0 | 6.0 | 0.00 | 0.73 | 0.73 | 95 | 996.6 |
| 20260507101653 | 64 | 4 | 4.0 | 4.0 | 0.00 | 0.73 | 0.73 | 95 | 996.6 |
| 20260507101149 | 64 | 117 | 1.0 | 1.0 | 0.07 | 0.73 | 0.73 | 96 | 996.5 |
| 20260507100647 | 64 | 110 | 0.0 | 1.0 | 0.12 | 0.73 | 0.73 | 96 | 997.7 |
| 20260507100145 | 64 | 108 | 5.0 | 7.0 | 0.12 | 0.72 | 0.72 | 96 | 998.3 |
| 20260507095643 | 65 | 132 | 0.0 | 0.0 | 0.12 | 0.72 | 0.72 | 96 | 999.6 |
| 20260507095139 | 65 | 107 | 0.0 | 0.0 | 0.07 | 0.70 | 0.70 | 95 | 999.5 |
| 20260507094635 | 65 | 104 | 1.0 | 1.0 | 0.00 | 0.69 | 0.69 | 94 | 999.4 |
| 20260507094132 | 65 | 46 | 3.0 | 3.0 | 0.00 | 0.69 | 0.69 | 94 | 999.9 |
| 20260507093630 | 65 | 104 | 1.0 | 1.0 | 0.00 | 0.69 | 0.69 | 94 | 1000.1 |
| 20260507093128 | 65 | 69 | 2.0 | 2.0 | 0.05 | 0.69 | 0.69 | 94 | 1000.0 |
| 20260507092625 | 64 | 147 | 0.0 | 0.0 | 0.05 | 0.69 | 0.69 | 94 | 999.9 |
| 20260507092121 | 65 | 132 | 0.0 | 0.0 | 0.00 | 0.68 | 0.68 | 94 | 999.0 |
| 20260507091618 | 65 | 194 | 2.0 | 2.0 | 0.00 | 0.68 | 0.68 | 94 | 997.1 |
| 20260507091114 | 65 | 138 | 3.0 | 3.0 | 0.00 | 0.68 | 0.68 | 93 | 997.3 |
| 20260507090610 | 65 | 253 | 3.0 | 6.0 | 0.07 | 0.68 | 0.68 | 92 | 998.7 |
| 20260507090107 | 65 | 182 | 2.0 | 3.0 | 0.07 | 0.68 | 0.68 | 92 | 999.4 |
| 20260507085604 | 66 | 172 | 4.0 | 4.0 | 0.00 | 0.67 | 0.67 | 92 | 999.6 |
| 20260507085101 | 66 | 240 | 4.0 | 6.0 | 0.05 | 0.67 | 0.67 | 92 | 999.8 |
| 20260507084557 | 66 | 235 | 4.0 | 6.0 | 0.12 | 0.67 | 0.67 | 92 | 1000.2 |
| 20260507084055 | 66 | 237 | 5.0 | 7.0 | 0.12 | 0.66 | 0.66 | 91 | 1000.3 |
| 20260507083551 | 67 | 259 | 6.0 | 8.0 | 0.05 | 0.65 | 0.65 | 89 | 1000.9 |
| 20260507083048 | 67 | 235 | 7.0 | 11.0 | 0.00 | 0.64 | 0.64 | 88 | 1001.0 |
| 20260507082544 | 67 | 245 | 7.0 | 8.0 | 0.07 | 0.64 | 0.64 | 91 | 1001.0 |
| 20260507082041 | 67 | 279 | 10.0 | 15.0 | 0.07 | 0.64 | 0.64 | 91 | 1001.3 |
| 20260507081537 | 68 | 266 | 2.0 | 4.0 | 0.05 | 0.63 | 0.63 | 92 | 1001.6 |
| 20260507081034 | 68 | 250 | 4.0 | 6.0 | 0.12 | 0.63 | 0.63 | 92 | 1001.6 |
| 20260507080529 | 68 | 341 | 8.0 | 11.0 | 0.12 | 0.62 | 0.62 | 92 | 1001.6 |
| 20260507080026 | 68 | 178 | 4.0 | 7.0 | 0.12 | 0.61 | 0.61 | 90 | 1002.2 |
| 20260507075521 | 68 | 265 | 4.0 | 6.0 | 0.07 | 0.60 | 0.60 | 90 | 1002.3 |
| 20260507075018 | 68 | 175 | 3.0 | 6.0 | 0.00 | 0.59 | 0.59 | 92 | 1002.3 |
| 20260507074515 | 68 | 258 | 4.0 | 7.0 | 0.05 | 0.59 | 0.59 | 93 | 1002.5 |
| 20260507074014 | 67 | 257 | 2.0 | 2.0 | 0.05 | 0.59 | 0.59 | 95 | 1002.8 |
| 20260507073509 | 67 | 307 | 4.0 | 6.0 | 0.00 | 0.58 | 0.58 | 97 | 1002.5 |
| 20260507073006 | 67 | 262 | 2.0 | 2.0 | 0.07 | 0.58 | 0.58 | 97 | 1002.1 |
| 20260507072503 | 67 | 304 | 2.0 | 3.0 | 0.07 | 0.58 | 0.58 | 96 | 1002.2 |
| 20260507072000 | 67 | 121 | 1.0 | 1.0 | 0.07 | 0.58 | 0.58 | 97 | 1002.0 |
| 20260507071457 | 67 | 265 | 0.0 | 1.0 | 0.00 | 0.57 | 0.57 | 97 | 1001.6 |
| 20260507070954 | 67 | 142 | 0.0 | 1.0 | 0.00 | 0.57 | 0.57 | 97 | 1000.9 |
| 20260507070451 | 67 | 320 | 3.0 | 3.0 | 0.00 | 0.57 | 0.57 | 97 | 1001.3 |
| 20260507065948 | 67 | 161 | 2.0 | 3.0 | 0.07 | 0.57 | 0.57 | 97 | 1001.2 |
| 20260507065445 | 67 | 206 | 3.0 | 4.0 | 0.07 | 0.57 | 0.57 | 97 | 1001.7 |
| 20260507064942 | 67 | 307 | 4.0 | 6.0 | 0.05 | 0.56 | 0.56 | 97 | 1001.8 |
| 20260507064440 | 67 | 319 | 2.0 | 3.0 | 0.17 | 0.56 | 0.56 | 97 | 1002.8 |
| 20260507063938 | 67 | 254 | 3.0 | 3.0 | 0.42 | 0.55 | 0.55 | 97 | 1003.5 |
| 20260507063434 | 67 | 124 | 2.0 | 3.0 | 0.97 | 0.53 | 0.53 | 98 | 1002.9 |
| 20260507062932 | 67 | 249 | 3.0 | 6.0 | 1.13 | 0.50 | 0.50 | 98 | 1002.9 |
| 20260507062429 | 67 | 264 | 6.0 | 14.0 | 1.44 | 0.39 | 0.39 | 97 | 1003.5 |
| 20260507061926 | 68 | 269 | 5.0 | 8.0 | 1.25 | 0.30 | 0.30 | 97 | 1003.5 |
| 20260507061424 | 68 | 319 | 2.0 | 6.0 | 0.47 | 0.15 | 0.15 | 96 | 1001.9 |
| 20260507060922 | 68 | 298 | 4.0 | 7.0 | 0.14 | 0.08 | 0.08 | 96 | 1001.1 |
| 20260507060418 | 68 | 297 | 3.0 | 4.0 | 0.12 | 0.07 | 0.07 | 95 | 1001.1 |
| 20260507055915 | 68 | 343 | 2.0 | 4.0 | 0.12 | 0.06 | 0.06 | 95 | 1000.9 |
| 20260507055410 | 68 | 169 | 3.0 | 4.0 | 0.31 | 0.05 | 0.05 | 93 | 1001.4 |
| 20260507054908 | 69 | 208 | 5.0 | 9.0 | 0.24 | 0.04 | 0.04 | 94 | 1001.4 |
| 20260507054404 | 71 | 275 | 6.0 | 8.0 | 0.00 | 0.00 | 0.00 | 85 | 1001.7 |
| 20260507053901 | 71 | 264 | 3.0 | 4.0 | 0.00 | 0.00 | 0.00 | 84 | 1001.9 |
| 20260507053359 | 72 | 260 | 10.0 | 14.0 | 0.00 | 0.00 | 0.00 | 83 | 1002.2 |
| 20260507052857 | 72 | 247 | 4.0 | 4.0 | 0.00 | 0.00 | 0.00 | 82 | 1002.1 |
| 20260507052354 | 73 | 277 | 3.0 | 6.0 | 0.00 | 0.00 | 0.00 | 82 | 1001.6 |
| 20260507051851 | 78 | 224 | 4.0 | 7.0 | 0.00 | 0.00 | 0.00 | 78 | 1001.5 |
| 20260507051349 | 79 | 227 | 2.0 | 3.0 | 0.00 | 0.00 | 0.00 | 82 | 1000.5 |
| 20260507050845 | 79 | 337 | 2.0 | 6.0 | 0.00 | 0.00 | 0.00 | 82 | 1000.1 |
| 20260507050342 | 79 | 58 | 1.0 | 1.0 | 0.00 | 0.00 | 0.00 | 81 | 999.9 |
| 20260507045839 | 79 | 151 | 2.0 | 3.0 | 0.00 | 0.00 | 0.00 | 81 | 999.9 |
| 20260507045335 | 79 | 277 | 0.0 | 1.0 | 0.00 | 0.00 | 0.00 | 81 | 999.9 |
| 20260507044833 | 79 | 145 | 2.0 | 2.0 | 0.00 | 0.00 | 0.00 | 82 | 1000.0 |
| 20260507044329 | 78 | 56 | 1.0 | 2.0 | 0.00 | 0.00 | 0.00 | 82 | 999.9 |
| 20260507043825 | 78 | 67 | 2.0 | 2.0 | 0.00 | 0.00 | 0.00 | 82 | 999.4 |
| 20260507043322 | 79 | 68 | 2.0 | 4.0 | 0.00 | 0.00 | 0.00 | 82 | 1000.0 |
| 20260507042818 | 79 | 129 | 1.0 | 2.0 | 0.00 | 0.00 | 0.00 | 82 | 1000.2 |
| 20260507042314 | 79 | 144 | 1.0 | 1.0 | 0.00 | 0.00 | 0.00 | 82 | 1000.3 |
| 20260507041811 | 79 | 346 | 2.0 | 3.0 | 0.00 | 0.00 | 0.00 | 82 | 1000.3 |
| 20260507041308 | 79 | 120 | 1.0 | 2.0 | 0.00 | 0.00 | 0.00 | 82 | 1000.4 |
| 20260507040805 | 79 | 87 | 1.0 | 1.0 | 0.00 | 0.00 | 0.00 | 82 | 1000.5 |
| 20260507040301 | 79 | 62 | 1.0 | 2.0 | 0.00 | 0.00 | 0.00 | 82 | 1000.6 |
| 20260507035757 | 79 | 158 | 2.0 | 2.0 | 0.00 | 0.00 | 0.00 | 82 | 1001.0 |
| 20260507035252 | 79 | 152 | 2.0 | 3.0 | 0.00 | 0.00 | 0.00 | 82 | 1000.9 |
| 20260507034750 | 79 | 262 | 3.0 | 4.0 | 0.00 | 0.00 | 0.00 | 82 | 1000.8 |
| 20260507034246 | 79 | 190 | 2.0 | 3.0 | 0.00 | 0.00 | 0.00 | 83 | 1000.9 |
| 20260507033745 | 79 | 66 | 3.0 | 3.0 | 0.00 | 0.00 | 0.00 | 83 | 1000.8 |
| 20260507033242 | 78 | 359 | 1.0 | 2.0 | 0.00 | 0.00 | 0.00 | 84 | 1000.7 |
| 20260507032739 | 78 | 76 | 2.0 | 3.0 | 0.00 | 0.00 | 0.00 | 85 | 1000.7 |
| 20260507032235 | 78 | 9 | 2.0 | 2.0 | 0.00 | 0.00 | 0.00 | 86 | 1000.8 |
| 20260507031732 | 77 | 99 | 0.0 | 0.0 | 0.00 | 0.00 | 0.00 | 87 | 1000.9 |
| 20260507031229 | 77 | 54 | 3.0 | 4.0 | 0.00 | 0.00 | 0.00 | 87 | 1000.7 |
| 20260507030726 | 77 | 84 | 5.0 | 8.0 | 0.00 | 0.00 | 0.00 | 88 | 1000.8 |
| 20260507030223 | 77 | 16 | 2.0 | 3.0 | 0.00 | 0.00 | 0.00 | 88 | 1000.7 |
| 20260507025720 | 77 | 237 | 1.0 | 1.0 | 0.00 | 0.00 | 0.00 | 88 | 1000.8 |
| 20260507025217 | 77 | 14 | 4.0 | 7.0 | 0.00 | 0.00 | 0.00 | 88 | 1000.8 |
| 20260507024716 | 77 | 137 | 1.0 | 2.0 | 0.00 | 0.00 | 0.00 | 88 | 1000.8 |
| 20260507024212 | 77 | 120 | 2.0 | 4.0 | 0.00 | 0.00 | 0.00 | 89 | 1000.9 |
| 20260507023708 | 77 | 140 | 1.0 | 2.0 | 0.00 | 0.00 | 0.00 | 88 | 1001.0 |
| 20260507023205 | 77 | 151 | 1.0 | 2.0 | 0.00 | 0.00 | 0.00 | 88 | 1001.1 |
| 20260507022702 | 77 | 98 | 5.0 | 7.0 | 0.00 | 0.00 | 0.00 | 88 | 1001.1 |
| 20260507022158 | 78 | 75 | 3.0 | 4.0 | 0.00 | 0.00 | 0.00 | 88 | 1001.0 |
| 20260507021654 | 78 | 88 | 3.0 | 4.0 | 0.00 | 0.00 | 0.00 | 87 | 1001.2 |
| 20260507021149 | 78 | 331 | 5.0 | 8.0 | 0.00 | 0.00 | 0.00 | 87 | 1001.1 |
| 20260507020648 | 78 | 33 | 1.0 | 2.0 | 0.00 | 0.00 | 0.00 | 87 | 1000.9 |
| 20260507020144 | 78 | 77 | 2.0 | 3.0 | 0.00 | 0.00 | 0.00 | 87 | 1001.0 |
| 20260507015643 | 78 | 344 | 5.0 | 8.0 | 0.00 | 0.00 | 0.00 | 87 | 1001.2 |
| 20260507015140 | 78 | 327 | 3.0 | 4.0 | 0.00 | 0.00 | 0.00 | 86 | 1001.3 |
| 20260507014636 | 78 | 38 | 4.0 | 7.0 | 0.00 | 0.00 | 0.00 | 86 | 1001.1 |
| 20260507014132 | 78 | 38 | 3.0 | 6.0 | 0.00 | 0.00 | 0.00 | 86 | 1001.1 |
| 20260507013629 | 78 | 76 | 1.0 | 2.0 | 0.00 | 0.00 | 0.00 | 86 | 1001.4 |
| 20260507013126 | 78 | 345 | 8.0 | 15.0 | 0.00 | 0.00 | 0.00 | 87 | 1001.3 |
| 20260507012623 | 78 | 100 | 4.0 | 9.0 | 0.00 | 0.00 | 0.00 | 88 | 1001.0 |
| 20260507012119 | 77 | 45 | 6.0 | 8.0 | 0.00 | 0.00 | 0.00 | 89 | 1000.8 |
| 20260507011617 | 77 | 55 | 4.0 | 4.0 | 0.00 | 0.00 | 0.00 | 89 | 1000.9 |
| 20260507011113 | 77 | 52 | 6.0 | 7.0 | 0.00 | 0.00 | 0.00 | 89 | 1000.9 |
| 20260507010608 | 77 | 312 | 2.0 | 6.0 | 0.00 | 0.00 | 0.00 | 89 | 1000.9 |
| 20260507010104 | 77 | 348 | 2.0 | 4.0 | 0.00 | 0.00 | 0.00 | 89 | 1001.4 |
| 20260507005601 | 77 | 28 | 1.0 | 3.0 | 0.00 | 0.00 | 0.00 | 90 | 1001.7 |
| 20260507005058 | 77 | 18 | 2.0 | 3.0 | 0.00 | 0.00 | 0.00 | 90 | 1001.8 |
| 20260507004555 | 77 | 56 | 8.0 | 13.0 | 0.00 | 0.00 | 0.00 | 91 | 1002.1 |
| 20260507004052 | 77 | 279 | 4.0 | 6.0 | 0.00 | 0.00 | 0.00 | 91 | 1002.4 |
| 20260507003548 | 76 | 40 | 3.0 | 4.0 | 0.00 | 0.00 | 0.00 | 91 | 1002.2 |
| 20260507003043 | 76 | 114 | 3.0 | 6.0 | 0.00 | 0.00 | 0.00 | 91 | 1002.0 |
| 20260507002540 | 76 | 5 | 4.0 | 6.0 | 0.00 | 0.00 | 0.00 | 91 | 1001.9 |
| 20260507002036 | 76 | 75 | 7.0 | 13.0 | 0.00 | 0.00 | 0.00 | 91 | 1002.3 |
| 20260507001533 | 76 | 50 | 2.0 | 3.0 | 0.00 | 0.00 | 0.00 | 91 | 1002.7 |
| 20260507001030 | 76 | 72 | 10.0 | 14.0 | 0.00 | 0.00 | 0.00 | 91 | 1002.6 |
| 20260507000526 | 76 | 75 | 4.0 | 6.0 | 0.00 | 0.00 | 0.00 | 91 | 1003.1 |
| 20260507000023 | 76 | 39 | 5.0 | 6.0 | 0.00 | 0.00 | 0.00 | 91 | 1003.3 |
| 20260506235520 | 76 | 68 | 3.0 | 3.0 | 0.00 | 0.00 | 0.00 | 90 | 1003.8 |
| 20260506235015 | 76 | 35 | 4.0 | 6.0 | 0.00 | 0.00 | 0.00 | 90 | 1004.2 |
| 20260506234513 | 76 | 320 | 3.0 | 3.0 | 0.00 | 0.00 | 0.00 | 90 | 1004.3 |
| 20260506234010 | 76 | 132 | 4.0 | 4.0 | 0.00 | 0.00 | 0.00 | 90 | 1004.6 |
| 20260506233506 | 77 | 51 | 4.0 | 7.0 | 0.00 | 0.00 | 0.00 | 90 | 1004.9 |
| 20260506233003 | 76 | 109 | 1.0 | 1.0 | 0.00 | 0.00 | 0.00 | 90 | 1004.9 |
| 20260506232459 | 77 | 163 | 1.0 | 1.0 | 0.00 | 0.00 | 0.00 | 89 | 1005.0 |
| 20260506231955 | 77 | 64 | 2.0 | 3.0 | 0.00 | 0.00 | 0.00 | 89 | 1005.3 |
| 20260506231453 | 77 | 322 | 2.0 | 2.0 | 0.00 | 0.00 | 0.00 | 89 | 1005.6 |
| 20260506230950 | 77 | 79 | 2.0 | 3.0 | 0.00 | 0.00 | 0.00 | 89 | 1005.6 |
| 20260506230446 | 77 | 111 | 4.0 | 4.0 | 0.00 | 0.00 | 0.00 | 89 | 1005.6 |
| 20260506225942 | 77 | 79 | 2.0 | 3.0 | 0.00 | 0.00 | 0.00 | 89 | 1005.5 |
| 20260506225440 | 77 | 90 | 2.0 | 3.0 | 0.00 | 0.00 | 0.00 | 88 | 1005.9 |
| 20260506224937 | 77 | 52 | 2.0 | 3.0 | 0.00 | 0.00 | 0.00 | 88 | 1005.9 |
| 20260506224434 | 77 | 354 | 0.0 | 0.0 | 0.00 | 0.00 | 0.00 | 88 | 1006.0 |
| 20260506223931 | 77 | 122 | 1.0 | 1.0 | 0.00 | 0.00 | 0.00 | 88 | 1006.2 |
| 20260506223426 | 77 | 54 | 0.0 | 1.0 | 0.00 | 0.00 | 0.00 | 88 | 1006.2 |
| 20260506222924 | 77 | 93 | 2.0 | 3.0 | 0.00 | 0.00 | 0.00 | 88 | 1006.2 |
| 20260506222420 | 77 | 108 | 1.0 | 2.0 | 0.00 | 0.00 | 0.00 | 88 | 1006.4 |
| 20260506221917 | 77 | 17 | 1.0 | 2.0 | 0.00 | 0.00 | 0.00 | 88 | 1006.3 |
| 20260506221414 | 77 | 148 | 0.0 | 0.0 | 0.00 | 0.00 | 0.00 | 87 | 1006.3 |
| 20260506220912 | 77 | 45 | 3.0 | 4.0 | 0.00 | 0.00 | 0.00 | 87 | 1006.2 |
| 20260506220407 | 77 | 39 | 2.0 | 2.0 | 0.00 | 0.00 | 0.00 | 87 | 1006.2 |
| 20260506215904 | 77 | 103 | 2.0 | 2.0 | 0.00 | 0.00 | 0.00 | 87 | 1006.3 |
| 20260506215400 | 77 | 43 | 1.0 | 2.0 | 0.00 | 0.00 | 0.00 | 87 | 1006.2 |
| 20260506214856 | 78 | 82 | 1.0 | 2.0 | 0.00 | 0.00 | 0.00 | 87 | 1006.3 |
| 20260506214353 | 78 | 56 | 1.0 | 2.0 | 0.00 | 0.00 | 0.00 | 86 | 1006.4 |
| 20260506213851 | 78 | 133 | 0.0 | 1.0 | 0.00 | 0.00 | 0.00 | 86 | 1006.2 |
| 20260506213348 | 78 | 136 | 2.0 | 3.0 | 0.00 | 0.00 | 0.00 | 86 | 1006.3 |
| 20260506212845 | 78 | 101 | 2.0 | 3.0 | 0.00 | 0.00 | 0.00 | 86 | 1006.3 |
| 20260506212341 | 78 | 125 | 0.0 | 1.0 | 0.00 | 0.00 | 0.00 | 86 | 1006.2 |
| 20260506211836 | 78 | 114 | 2.0 | 3.0 | 0.00 | 0.00 | 0.00 | 85 | 1006.1 |
| 20260506211332 | 78 | 137 | 0.0 | 0.0 | 0.00 | 0.00 | 0.00 | 85 | 1006.1 |
| 20260506210830 | 78 | 96 | 1.0 | 2.0 | 0.00 | 0.00 | 0.00 | 85 | 1006.2 |
| 20260506210327 | 78 | 107 | 1.0 | 1.0 | 0.00 | 0.00 | 0.00 | 85 | 1006.1 |
| 20260506205824 | 78 | 137 | 0.0 | 1.0 | 0.00 | 0.00 | 0.00 | 84 | 1006.3 |
| 20260506205320 | 79 | 107 | 0.0 | 1.0 | 0.00 | 0.00 | 0.00 | 84 | 1006.4 |
| 20260506204816 | 79 | 73 | 4.0 | 6.0 | 0.00 | 0.00 | 0.00 | 83 | 1006.2 |
| 20260506204314 | 79 | 80 | 0.0 | 1.0 | 0.00 | 0.00 | 0.00 | 83 | 1006.1 |
| 20260506203812 | 79 | 64 | 6.0 | 8.0 | 0.00 | 0.00 | 0.00 | 82 | 1006.1 |
| 20260506203309 | 80 | 53 | 2.0 | 3.0 | 0.00 | 0.00 | 0.00 | 82 | 1006.3 |
| 20260506202805 | 80 | 163 | 0.0 | 1.0 | 0.00 | 0.00 | 0.00 | 81 | 1006.4 |
| 20260506202305 | 80 | 86 | 1.0 | 1.0 | 0.00 | 0.00 | 0.00 | 81 | 1006.3 |
| 20260506201759 | 80 | 100 | 2.0 | 2.0 | 0.00 | 0.00 | 0.00 | 80 | 1006.6 |
| 20260506201256 | 81 | 77 | 1.0 | 2.0 | 0.00 | 0.00 | 0.00 | 79 | 1006.5 |
| 20260506200753 | 80 | 18 | 4.0 | 4.0 | 0.00 | 0.00 | 0.00 | 80 | 1006.6 |
| 20260506200249 | 81 | 32 | 3.0 | 4.0 | 0.00 | 0.00 | 0.00 | 79 | 1006.5 |
| 20260506195746 | 81 | 46 | 4.0 | 6.0 | 0.00 | 0.00 | 0.00 | 79 | 1006.6 |
| 20260506195242 | 82 | 88 | 2.0 | 3.0 | 0.00 | 0.00 | 0.00 | 77 | 1006.7 |
| 20260506194739 | 82 | 132 | 1.0 | 1.0 | 0.00 | 0.00 | 0.00 | 78 | 1006.8 |
| 20260506194236 | 82 | 82 | 2.0 | 3.0 | 0.00 | 0.00 | 0.00 | 77 | 1006.8 |
| 20260506193734 | 82 | 37 | 2.0 | 2.0 | 0.00 | 0.00 | 0.00 | 77 | 1006.9 |
| 20260506193230 | 82 | 32 | 3.0 | 3.0 | 0.00 | 0.00 | 0.00 | 77 | 1007.0 |
| 20260506192727 | 82 | 91 | 3.0 | 4.0 | 0.00 | 0.00 | 0.00 | 77 | 1007.2 |
| 20260506192223 | 82 | 14 | 2.0 | 3.0 | 0.00 | 0.00 | 0.00 | 77 | 1007.1 |
| 20260506191720 | 82 | 77 | 2.0 | 3.0 | 0.00 | 0.00 | 0.00 | 77 | 1007.3 |
| 20260506191216 | 82 | 109 | 1.0 | 2.0 | 0.00 | 0.00 | 0.00 | 77 | 1007.2 |
| 20260506190714 | 82 | 122 | 0.0 | 1.0 | 0.00 | 0.00 | 0.00 | 77 | 1007.3 |
| 20260506190210 | 82 | 54 | 3.0 | 4.0 | 0.00 | 0.00 | 0.00 | 76 | 1007.3 |
| 20260506185708 | 82 | 92 | 1.0 | 1.0 | 0.00 | 0.00 | 0.00 | 77 | 1007.3 |
| 20260506185204 | 81 | 128 | 3.0 | 4.0 | 0.00 | 0.00 | 0.00 | 77 | 1007.4 |
| 20260506184701 | 80 | 11 | 4.0 | 6.0 | 0.00 | 0.00 | 0.00 | 78 | 1007.5 |
| 20260506184159 | 80 | 28 | 4.0 | 6.0 | 0.00 | 0.00 | 0.00 | 78 | 1007.8 |
| 20260506183655 | 80 | 140 | 2.0 | 3.0 | 0.00 | 0.00 | 0.00 | 78 | 1008.0 |
| 20260506183151 | 80 | 42 | 2.0 | 3.0 | 0.00 | 0.00 | 0.00 | 78 | 1008.0 |
| 20260506182649 | 80 | 346 | 4.0 | 4.0 | 0.00 | 0.00 | 0.00 | 78 | 1007.9 |
| 20260506182146 | 80 | 53 | 2.0 | 2.0 | 0.00 | 0.00 | 0.00 | 78 | 1007.8 |
| 20260506181643 | 81 | 75 | 4.0 | 6.0 | 0.00 | 0.00 | 0.00 | 79 | 1007.7 |
| 20260506181140 | 81 | 68 | 3.0 | 3.0 | 0.00 | 0.00 | 0.00 | 78 | 1007.9 |
| 20260506180637 | 81 | 327 | 4.0 | 6.0 | 0.00 | 0.00 | 0.00 | 79 | 1008.1 |